DAL128 PHLI-PHTO

Flight info

Callsign DAL128
Flight time 0h 53m
Altitude 27000
Route LIH V15 HNL V2 LNY V16 UPP V2 ITO
Aircraft A319/M-SDE3FGHIRWY/LB1

Departure

Time 2026-04-30 00:43
Airport Lihue Airport (PHLI)

Arrival

Time 2026-04-30 01:36
Airport Hilo International Airport (PHTO)
Time Latitude Longitude Altitude Speed Heading
2026-04-30 00:43 21.99053 -159.25239 4263 ft 261 kts 130°
2026-04-30 00:43 21.97773 -159.23809 5215 ft 266 kts 131°
2026-04-30 00:43 21.96471 -159.22365 6165 ft 271 kts 131°
2026-04-30 00:43 21.95145 -159.20893 7099 ft 276 kts 131°
2026-04-30 00:44 21.93798 -159.19396 8009 ft 280 kts 131°
2026-04-30 00:44 21.92429 -159.17869 8851 ft 286 kts 131°
2026-04-30 00:44 21.91035 -159.16307 9681 ft 291 kts 131°
2026-04-30 00:44 21.89611 -159.14707 10309 ft 305 kts 132°
2026-04-30 00:45 21.88086 -159.12989 10630 ft 328 kts 132°
2026-04-30 00:45 21.86482 -159.11186 11255 ft 338 kts 133°
2026-04-30 00:45 21.84841 -159.09348 12002 ft 343 kts 133°
2026-04-30 00:45 21.83170 -159.07480 12749 ft 349 kts 133°
2026-04-30 00:46 21.81476 -159.05588 13480 ft 354 kts 133°
2026-04-30 00:46 21.79769 -159.03653 14200 ft 358 kts 130°
2026-04-30 00:46 21.78296 -159.01425 14888 ft 363 kts 120°
2026-04-30 00:46 21.76987 -158.99085 15552 ft 368 kts 120°
2026-04-30 00:47 21.75657 -158.96715 16206 ft 373 kts 120°
2026-04-30 00:47 21.74305 -158.94310 16844 ft 378 kts 120°
2026-04-30 00:47 21.72935 -158.91875 17461 ft 383 kts 120°
2026-04-30 00:47 21.71546 -158.89410 18076 ft 387 kts 120°
2026-04-30 00:48 21.70136 -158.86923 18685 ft 392 kts 120°
2026-04-30 00:48 21.68709 -158.84413 19296 ft 396 kts 120°
2026-04-30 00:48 21.67263 -158.81874 19884 ft 400 kts 120°
2026-04-30 00:48 21.65808 -158.79310 20477 ft 404 kts 120°
2026-04-30 00:49 21.64344 -158.76721 21051 ft 407 kts 120°
2026-04-30 00:49 21.62866 -158.74105 21618 ft 411 kts 120°
2026-04-30 00:49 21.61373 -158.71467 22155 ft 415 kts 121°
2026-04-30 00:49 21.59863 -158.68805 22690 ft 419 kts 121°
2026-04-30 00:50 21.58338 -158.66117 23206 ft 423 kts 121°
2026-04-30 00:50 21.56801 -158.63413 23731 ft 426 kts 121°
2026-04-30 00:50 21.55246 -158.60685 24216 ft 430 kts 121°
2026-04-30 00:50 21.53679 -158.57938 24695 ft 433 kts 121°
2026-04-30 00:51 21.52107 -158.55174 25169 ft 435 kts 121°
2026-04-30 00:51 21.50525 -158.52388 25627 ft 438 kts 121°
2026-04-30 00:51 21.48930 -158.49587 26074 ft 441 kts 121°
2026-04-30 00:51 21.47324 -158.46773 26507 ft 443 kts 121°
2026-04-30 00:52 21.45712 -158.43946 26923 ft 446 kts 121°
2026-04-30 00:52 21.44090 -158.41101 27116 ft 447 kts 121°
2026-04-30 00:52 21.42487 -158.38287 27155 ft 435 kts 121°
2026-04-30 00:52 21.40923 -158.35541 27153 ft 429 kts 121°
2026-04-30 00:53 21.39370 -158.32818 27157 ft 427 kts 121°
2026-04-30 00:53 21.37822 -158.30104 27155 ft 426 kts 121°
2026-04-30 00:53 21.36278 -158.27395 27154 ft 426 kts 121°
2026-04-30 00:53 21.34820 -158.24845 27154 ft 426 kts 121°
2026-04-30 00:54 21.33277 -158.22150 27157 ft 426 kts 121°
2026-04-30 00:54 21.31880 -158.19356 27158 ft 425 kts 112°
2026-04-30 00:54 21.30953 -158.16350 27149 ft 424 kts 102°
2026-04-30 00:54 21.30533 -158.13193 27145 ft 422 kts 91°
2026-04-30 00:55 21.30551 -158.10049 27142 ft 421 kts 86°
2026-04-30 00:55 21.30614 -158.06908 27141 ft 421 kts 87°
2026-04-30 00:55 21.30714 -158.00626 27139 ft 421 kts 87°
2026-04-30 00:56 21.30747 -157.97482 27137 ft 422 kts 90°
2026-04-30 00:56 21.30428 -157.94357 27137 ft 423 kts 101°
2026-04-30 00:56 21.29602 -157.91332 27135 ft 424 kts 111°
2026-04-30 00:56 21.28297 -157.88503 27134 ft 423 kts 121°
2026-04-30 00:57 21.26821 -157.85823 27130 ft 410 kts 121°
2026-04-30 00:57 21.25382 -157.83256 27128 ft 395 kts 121°
2026-04-30 00:57 21.23986 -157.80792 27126 ft 379 kts 122°
2026-04-30 00:57 21.22636 -157.78419 27126 ft 372 kts 122°
2026-04-30 00:58 21.21254 -157.75989 27136 ft 391 kts 122°
2026-04-30 00:58 21.19811 -157.73445 27138 ft 408 kts 121°
2026-04-30 00:58 21.18311 -157.70789 27138 ft 425 kts 121°
2026-04-30 00:58 21.16760 -157.68032 27138 ft 438 kts 121°
2026-04-30 00:59 21.15178 -157.65216 27138 ft 444 kts 121°
2026-04-30 00:59 21.13580 -157.62375 27146 ft 445 kts 121°
2026-04-30 00:59 21.11981 -157.59531 27146 ft 446 kts 121°
2026-04-30 00:59 21.10381 -157.56688 27146 ft 446 kts 121°
2026-04-30 01:00 21.08777 -157.53842 27146 ft 446 kts 121°
2026-04-30 01:00 21.07175 -157.51006 27146 ft 446 kts 122°
2026-04-30 01:00 21.05562 -157.48158 27146 ft 447 kts 122°
2026-04-30 01:00 21.03964 -157.45337 27142 ft 438 kts 122°
2026-04-30 01:01 21.02401 -157.42572 27146 ft 431 kts 122°
2026-04-30 01:01 21.00855 -157.39838 27146 ft 428 kts 122°
2026-04-30 01:01 20.99315 -157.37114 27146 ft 427 kts 122°
2026-04-30 01:01 20.97773 -157.34395 27146 ft 427 kts 122°
2026-04-30 01:02 20.96229 -157.31677 27150 ft 427 kts 122°
2026-04-30 01:02 20.94685 -157.28965 27157 ft 427 kts 122°
2026-04-30 01:02 20.93121 -157.26211 27158 ft 428 kts 122°
2026-04-30 01:02 20.91577 -157.23485 27154 ft 428 kts 122°
2026-04-30 01:03 20.90058 -157.20797 27154 ft 428 kts 122°
2026-04-30 01:03 20.88496 -157.18037 27153 ft 428 kts 122°
2026-04-30 01:03 20.86952 -157.15321 27152 ft 428 kts 122°
2026-04-30 01:03 20.85402 -157.12604 27152 ft 428 kts 122°
2026-04-30 01:04 20.83852 -157.09891 27150 ft 428 kts 122°
2026-04-30 01:04 20.82304 -157.07175 27145 ft 428 kts 122°
2026-04-30 01:04 20.80758 -157.04461 27140 ft 428 kts 122°
2026-04-30 01:04 20.79210 -157.01744 27137 ft 428 kts 122°
2026-04-30 01:05 20.77666 -156.99032 27135 ft 427 kts 122°
2026-04-30 01:05 20.76127 -156.96316 27133 ft 428 kts 121°
2026-04-30 01:05 20.74659 -156.93551 27132 ft 428 kts 120°
2026-04-30 01:05 20.73258 -156.90746 27131 ft 428 kts 118°
2026-04-30 01:06 20.71892 -156.87922 27132 ft 428 kts 118°
2026-04-30 01:06 20.70536 -156.85094 27131 ft 428 kts 118°
2026-04-30 01:06 20.69170 -156.82264 27131 ft 428 kts 118°
2026-04-30 01:06 20.67794 -156.79445 27128 ft 428 kts 118°
2026-04-30 01:07 20.66409 -156.76635 27126 ft 428 kts 119°
2026-04-30 01:07 20.65017 -156.73835 27125 ft 428 kts 119°
2026-04-30 01:07 20.63612 -156.71031 27125 ft 428 kts 119°
2026-04-30 01:07 20.62209 -156.68232 27121 ft 428 kts 119°
2026-04-30 01:08 20.60806 -156.65432 27121 ft 428 kts 119°
2026-04-30 01:08 20.59404 -156.62632 27121 ft 428 kts 119°
2026-04-30 01:08 20.58001 -156.59824 27122 ft 428 kts 119°
2026-04-30 01:08 20.56601 -156.57022 27121 ft 428 kts 119°
2026-04-30 01:09 20.55198 -156.54213 27121 ft 428 kts 119°
2026-04-30 01:09 20.53799 -156.51408 27119 ft 428 kts 119°
2026-04-30 01:09 20.52399 -156.48604 27119 ft 428 kts 119°
2026-04-30 01:09 20.50995 -156.45803 27117 ft 429 kts 120°
2026-04-30 01:10 20.49586 -156.42998 27115 ft 429 kts 120°
2026-04-30 01:10 20.48179 -156.40198 27113 ft 429 kts 120°
2026-04-30 01:10 20.46770 -156.37393 27113 ft 429 kts 120°
2026-04-30 01:10 20.45345 -156.34552 27109 ft 429 kts 120°
2026-04-30 01:11 20.43940 -156.31748 27113 ft 429 kts 120°
2026-04-30 01:11 20.43009 -156.29888 27104 ft 429 kts 120°
2026-04-30 01:11 20.41602 -156.27081 27109 ft 429 kts 120°
2026-04-30 01:11 20.40193 -156.24272 27104 ft 429 kts 120°
2026-04-30 01:12 20.38785 -156.21466 27099 ft 429 kts 120°
2026-04-30 01:12 20.37378 -156.18662 27095 ft 430 kts 120°
2026-04-30 01:12 20.35966 -156.15851 27089 ft 430 kts 120°
2026-04-30 01:12 20.34553 -156.13045 27080 ft 430 kts 120°
2026-04-30 01:13 20.33139 -156.10239 27081 ft 430 kts 120°
2026-04-30 01:13 20.31726 -156.07437 27080 ft 430 kts 120°
2026-04-30 01:13 20.30307 -156.04628 27078 ft 430 kts 120°
2026-04-30 01:13 20.28895 -156.01832 27076 ft 429 kts 120°
2026-04-30 01:14 20.27478 -155.99025 27144 ft 431 kts 120°
2026-04-30 01:14 20.26058 -155.96212 27151 ft 432 kts 120°
2026-04-30 01:14 20.24635 -155.93398 27160 ft 432 kts 120°
2026-04-30 01:14 20.23208 -155.90581 27168 ft 432 kts 120°
2026-04-30 01:15 20.21789 -155.87767 27168 ft 432 kts 119°
2026-04-30 01:15 20.20624 -155.84813 27086 ft 436 kts 109°
2026-04-30 01:15 20.19944 -155.81657 26479 ft 438 kts 97°
2026-04-30 01:15 20.19753 -155.78438 26031 ft 433 kts 92°
2026-04-30 01:16 20.19610 -155.75210 25565 ft 429 kts 92°
2026-04-30 01:16 20.19457 -155.72046 25099 ft 427 kts 92°
2026-04-30 01:16 20.19295 -155.68900 24632 ft 424 kts 93°
2026-04-30 01:16 20.19129 -155.65777 24170 ft 421 kts 93°
2026-04-30 01:17 20.18965 -155.62677 23685 ft 418 kts 93°
2026-04-30 01:17 20.18803 -155.59596 23211 ft 416 kts 92°
2026-04-30 01:17 20.18646 -155.56532 22723 ft 413 kts 92°
2026-04-30 01:17 20.18494 -155.53485 22250 ft 411 kts 92°
2026-04-30 01:18 20.18345 -155.50461 21784 ft 408 kts 92°
2026-04-30 01:18 20.18193 -155.47459 21302 ft 405 kts 92°
2026-04-30 01:18 20.18035 -155.44470 20804 ft 403 kts 92°
2026-04-30 01:18 20.17877 -155.41500 20333 ft 400 kts 92°
2026-04-30 01:19 20.17722 -155.38553 19842 ft 398 kts 92°
2026-04-30 01:19 20.17569 -155.35626 19337 ft 395 kts 92°
2026-04-30 01:19 20.17417 -155.32715 18847 ft 393 kts 92°
2026-04-30 01:19 20.17267 -155.29822 18360 ft 390 kts 91°
2026-04-30 01:20 20.17032 -155.26957 17848 ft 389 kts 99°
2026-04-30 01:20 20.16143 -155.24236 17300 ft 390 kts 118°
2026-04-30 01:20 20.14574 -155.21927 16910 ft 381 kts 134°
2026-04-30 01:20 20.12525 -155.20201 16253 ft 372 kts 152°
2026-04-30 01:21 20.10230 -155.19069 15851 ft 357 kts 158°
2026-04-30 01:21 20.07993 -155.18023 15418 ft 346 kts 158°
2026-04-30 01:21 20.05826 -155.16997 14980 ft 336 kts 157°
2026-04-30 01:21 20.03694 -155.15986 14551 ft 336 kts 157°
2026-04-30 01:22 20.01556 -155.14973 14116 ft 336 kts 157°
2026-04-30 01:22 19.99465 -155.13864 13686 ft 336 kts 148°
2026-04-30 01:22 19.97647 -155.12313 13261 ft 336 kts 135°
2026-04-30 01:22 19.96200 -155.10374 12844 ft 335 kts 123°
2026-04-30 01:23 19.94902 -155.08324 12424 ft 334 kts 124°
2026-04-30 01:23 19.93594 -155.06283 11988 ft 332 kts 124°
2026-04-30 01:23 19.92308 -155.04285 11558 ft 322 kts 124°
2026-04-30 01:23 19.91065 -155.02355 11136 ft 312 kts 124°
2026-04-30 01:24 19.89857 -155.00479 10719 ft 302 kts 124°
2026-04-30 01:24 19.88673 -154.98640 10320 ft 294 kts 124°
2026-04-30 01:24 19.87521 -154.96854 10071 ft 294 kts 123°
2026-04-30 01:24 19.86367 -154.95038 9962 ft 298 kts 121°
2026-04-30 01:25 19.85625 -154.92994 9815 ft 298 kts 102°
2026-04-30 01:25 19.85206 -154.90849 9565 ft 295 kts 99°
2026-04-30 01:25 19.84820 -154.88720 9314 ft 293 kts 99°
2026-04-30 01:25 19.84437 -154.86602 9064 ft 291 kts 99°
2026-04-30 01:26 19.84055 -154.84498 8814 ft 289 kts 99°
2026-04-30 01:26 19.83676 -154.82412 8556 ft 287 kts 99°
2026-04-30 01:26 19.83299 -154.80329 8309 ft 286 kts 99°
2026-04-30 01:26 19.82925 -154.78269 8061 ft 283 kts 99°
2026-04-30 01:27 19.82552 -154.76221 7809 ft 282 kts 99°
2026-04-30 01:27 19.82178 -154.74183 7561 ft 280 kts 99°
2026-04-30 01:27 19.81805 -154.72163 7305 ft 278 kts 99°
2026-04-30 01:27 19.81432 -154.70147 6936 ft 276 kts 99°
2026-04-30 01:28 19.81057 -154.68196 6558 ft 264 kts 103°
2026-04-30 01:28 19.80274 -154.66479 6183 ft 256 kts 126°
2026-04-30 01:28 19.78964 -154.65262 5807 ft 249 kts 149°
2026-04-30 01:28 19.77340 -154.64702 5415 ft 244 kts 172°
2026-04-30 01:29 19.75665 -154.64845 5060 ft 244 kts 195°
2026-04-30 01:29 19.74148 -154.65662 4679 ft 247 kts 218°
2026-04-30 01:29 19.72998 -154.67012 4306 ft 248 kts 238°
2026-04-30 01:29 19.72293 -154.68673 3929 ft 248 kts 256°
2026-04-30 01:30 19.72094 -154.70476 3553 ft 246 kts 272°
2026-04-30 01:30 19.72100 -154.72297 3176 ft 247 kts 272°
2026-04-30 01:30 19.72105 -154.74128 2801 ft 249 kts 272°
2026-04-30 01:30 19.72108 -154.75960 2417 ft 247 kts 272°
2026-04-30 01:31 19.72111 -154.77755 2037 ft 240 kts 272°
2026-04-30 01:31 19.72114 -154.79496 1768 ft 228 kts 271°
2026-04-30 01:31 19.72116 -154.81138 1764 ft 219 kts 271°
2026-04-30 01:31 19.72119 -154.82766 1753 ft 216 kts 271°
2026-04-30 01:32 19.72122 -154.84334 1748 ft 216 kts 272°
2026-04-30 01:32 19.72124 -154.85944 1753 ft 215 kts 272°
2026-04-30 01:32 19.72125 -154.87509 1754 ft 215 kts 272°
2026-04-30 01:32 19.72127 -154.89116 1755 ft 215 kts 272°
2026-04-30 01:33 19.72127 -154.90636 1779 ft 195 kts 272°
2026-04-30 01:33 19.72129 -154.92013 1718 ft 181 kts 272°
2026-04-30 01:33 19.72131 -154.93329 1572 ft 177 kts 272°
2026-04-30 01:33 19.72132 -154.94615 1395 ft 169 kts 272°
2026-04-30 01:34 19.72131 -154.95782 1206 ft 150 kts 272°
2026-04-30 01:34 19.72132 -154.96857 1040 ft 143 kts 272°
2026-04-30 01:34 19.72133 -154.97896 882 ft 140 kts 272°
2026-04-30 01:34 19.72134 -154.98921 725 ft 138 kts 272°
2026-04-30 01:35 19.72135 -154.99940 568 ft 138 kts 272°
2026-04-30 01:35 19.72135 -155.00950 411 ft 137 kts 272°
2026-04-30 01:35 19.72136 -155.01958 254 ft 136 kts 272°
2026-04-30 01:35 19.72136 -155.02959 99 ft 135 kts 271°
2026-04-30 01:36 19.72142 -155.03897 45 ft 102 kts 272°
2026-04-30 01:36 19.72153 -155.04324 40 ft 14 kts 270°
2026-04-30 01:36 19.72153 -155.04380 39 ft 7 kts 270°
2026-04-30 01:36 19.72153 -155.04435 39 ft 8 kts 270°
2026-04-30 01:37 19.72153 -155.04493 39 ft 8 kts 270°
2026-04-30 01:37 19.72152 -155.04561 38 ft 12 kts 266°
2026-04-30 01:37 19.72145 -155.04699 35 ft 20 kts 268°
2026-04-30 01:37 19.72143 -155.04848 37 ft 20 kts 270°
2026-04-30 01:38 19.72053 -155.04919 38 ft 18 kts 168°
2026-04-30 01:38 19.72015 -155.04812 38 ft 17 kts 85°
2026-04-30 01:38 19.72020 -155.04686 39 ft 17 kts 89°
2026-04-30 01:38 19.72020 -155.04561 39 ft 17 kts 90°
2026-04-30 01:39 19.72019 -155.04441 40 ft 16 kts 92°
2026-04-30 01:39 19.72016 -155.04326 41 ft 6 kts 90°
2026-04-30 01:39 19.71561 -155.03909 42 ft 0 kts 178°